Year,Month,Day,Hour,Minute,Value (Times are PST for temperature in C)
2012,09,26,00,00,10.40
2012,09,26,00,01,10.40
2012,09,26,00,02,10.40
2012,09,26,00,03,10.40
2012,09,26,00,04,10.30
2012,09,26,00,05,10.30
2012,09,26,00,06,10.30
2012,09,26,00,07,10.30
2012,09,26,00,08,10.20
2012,09,26,00,09,10.20
2012,09,26,00,10,10.20
2012,09,26,00,11,10.10
2012,09,26,00,12,10.00
2012,09,26,00,13,10.00
2012,09,26,00,14,9.90
2012,09,26,00,15,9.90
2012,09,26,00,16,9.80
2012,09,26,00,17,9.80
2012,09,26,00,18,9.80
2012,09,26,00,19,9.70
2012,09,26,00,20,9.70
2012,09,26,00,21,9.70
2012,09,26,00,22,9.70
2012,09,26,00,23,9.70
2012,09,26,00,24,9.60
2012,09,26,00,25,9.60
2012,09,26,00,26,9.60
2012,09,26,00,27,9.60
2012,09,26,00,28,9.70
2012,09,26,00,29,9.70
2012,09,26,00,30,9.70
2012,09,26,00,31,9.70
2012,09,26,00,32,9.70
2012,09,26,00,33,9.60
2012,09,26,00,34,9.70
2012,09,26,00,35,9.70
2012,09,26,00,36,9.70
2012,09,26,00,37,9.70
2012,09,26,00,38,9.70
2012,09,26,00,39,9.70
2012,09,26,00,40,9.80
2012,09,26,00,41,9.80
2012,09,26,00,42,9.80
2012,09,26,00,43,9.80
2012,09,26,00,44,9.80
2012,09,26,00,45,9.80
2012,09,26,00,46,9.80
2012,09,26,00,47,9.80
2012,09,26,00,48,9.80
2012,09,26,00,49,9.80
2012,09,26,00,50,9.80
2012,09,26,00,51,9.70
2012,09,26,00,52,9.70
2012,09,26,00,53,9.70
2012,09,26,00,54,9.70
2012,09,26,00,55,9.60
2012,09,26,00,56,9.60
2012,09,26,00,57,9.60
2012,09,26,00,58,9.60
2012,09,26,00,59,9.60
2012,09,26,01,00,9.50
2012,09,26,01,01,9.50
2012,09,26,01,02,9.50
2012,09,26,01,03,9.50
2012,09,26,01,04,9.40
2012,09,26,01,05,9.40
2012,09,26,01,06,9.40
2012,09,26,01,07,9.40
2012,09,26,01,08,9.40
2012,09,26,01,09,9.40
2012,09,26,01,10,9.40
2012,09,26,01,11,9.40
2012,09,26,01,12,9.40
2012,09,26,01,13,9.40
2012,09,26,01,14,9.40
2012,09,26,01,15,9.40
2012,09,26,01,16,9.40
2012,09,26,01,17,9.30
2012,09,26,01,18,9.30
2012,09,26,01,19,9.30
2012,09,26,01,20,9.30
2012,09,26,01,21,9.30
2012,09,26,01,22,9.30
2012,09,26,01,23,9.30
2012,09,26,01,24,9.30
2012,09,26,01,25,9.30
2012,09,26,01,26,9.20
2012,09,26,01,27,9.20
2012,09,26,01,28,9.20
2012,09,26,01,29,9.10
2012,09,26,01,30,9.10
2012,09,26,01,31,9.10
2012,09,26,01,32,9.10
2012,09,26,01,33,9.10
2012,09,26,01,34,9.00
2012,09,26,01,35,9.10
2012,09,26,01,36,9.10
2012,09,26,01,37,9.10
2012,09,26,01,38,9.10
2012,09,26,01,39,9.10
2012,09,26,01,40,9.10
2012,09,26,01,41,9.20
2012,09,26,01,42,9.20
2012,09,26,01,43,9.30
2012,09,26,01,44,9.30
2012,09,26,01,45,9.40
2012,09,26,01,46,9.50
2012,09,26,01,47,9.60
2012,09,26,01,48,9.60
2012,09,26,01,49,9.70
2012,09,26,01,50,9.70
2012,09,26,01,51,9.80
2012,09,26,01,52,9.80
2012,09,26,01,53,9.80
2012,09,26,01,54,9.90
2012,09,26,01,55,9.90
2012,09,26,01,56,10.00
2012,09,26,01,57,10.00
2012,09,26,01,58,10.10
2012,09,26,01,59,10.10
2012,09,26,02,00,10.00
2012,09,26,02,01,10.00
2012,09,26,02,02,10.00
2012,09,26,02,03,9.90
2012,09,26,02,04,9.90
2012,09,26,02,05,9.90
2012,09,26,02,06,9.90
2012,09,26,02,07,9.90
2012,09,26,02,08,9.90
2012,09,26,02,09,9.80
2012,09,26,02,10,9.80
2012,09,26,02,11,9.70
2012,09,26,02,12,9.70
2012,09,26,02,13,9.60
2012,09,26,02,14,9.60
2012,09,26,02,15,9.50
2012,09,26,02,16,9.40
2012,09,26,02,17,9.40
2012,09,26,02,18,9.30
2012,09,26,02,19,9.30
2012,09,26,02,20,9.30
2012,09,26,02,21,9.30
2012,09,26,02,22,9.20
2012,09,26,02,23,9.20
2012,09,26,02,24,9.20
2012,09,26,02,25,9.10
2012,09,26,02,26,9.10
2012,09,26,02,27,9.10
2012,09,26,02,28,9.10
2012,09,26,02,29,9.10
2012,09,26,02,30,9.10
2012,09,26,02,31,9.10
2012,09,26,02,32,9.20
2012,09,26,02,33,9.20
2012,09,26,02,34,9.30
2012,09,26,02,35,9.40
2012,09,26,02,36,9.40
2012,09,26,02,37,9.50
2012,09,26,02,38,9.60
2012,09,26,02,39,9.70
2012,09,26,02,40,9.80
2012,09,26,02,41,9.80
2012,09,26,02,42,9.80
2012,09,26,02,43,9.80
2012,09,26,02,44,9.70
2012,09,26,02,45,9.70
2012,09,26,02,46,9.60
2012,09,26,02,47,9.60
2012,09,26,02,48,9.50
2012,09,26,02,49,9.50
2012,09,26,02,50,9.40
2012,09,26,02,51,9.30
2012,09,26,02,52,9.30
2012,09,26,02,53,9.20
2012,09,26,02,54,9.20
2012,09,26,02,55,9.20
2012,09,26,02,56,9.10
2012,09,26,02,57,9.10
2012,09,26,02,58,9.00
2012,09,26,02,59,9.00
2012,09,26,03,00,8.90
2012,09,26,03,01,8.90
2012,09,26,03,02,8.90
2012,09,26,03,03,8.90
2012,09,26,03,04,8.90
2012,09,26,03,05,8.90
2012,09,26,03,06,8.90
2012,09,26,03,07,8.90
2012,09,26,03,08,8.90
2012,09,26,03,09,8.90
2012,09,26,03,10,8.90
2012,09,26,03,11,9.00
2012,09,26,03,12,9.00
2012,09,26,03,13,9.00
2012,09,26,03,14,9.10
2012,09,26,03,15,9.10
2012,09,26,03,16,9.10
2012,09,26,03,17,9.10
2012,09,26,03,18,9.10
2012,09,26,03,19,9.20
2012,09,26,03,20,9.20
2012,09,26,03,21,9.30
2012,09,26,03,22,9.30
2012,09,26,03,23,9.30
2012,09,26,03,24,9.20
2012,09,26,03,25,9.20
2012,09,26,03,26,9.10
2012,09,26,03,27,9.10
2012,09,26,03,28,9.00
2012,09,26,03,29,9.00
2012,09,26,03,30,8.90
2012,09,26,03,31,8.90
2012,09,26,03,32,8.80
2012,09,26,03,33,8.80
2012,09,26,03,34,8.70
2012,09,26,03,35,8.70
2012,09,26,03,36,8.60
2012,09,26,03,37,8.60
2012,09,26,03,38,8.50
2012,09,26,03,39,8.50
2012,09,26,03,40,8.40
2012,09,26,03,41,8.40
2012,09,26,03,42,8.40
2012,09,26,03,43,8.40
2012,09,26,03,44,8.40
2012,09,26,03,45,8.40
2012,09,26,03,46,8.40
2012,09,26,03,47,8.50
2012,09,26,03,48,8.50
2012,09,26,03,49,8.60
2012,09,26,03,50,8.60
2012,09,26,03,51,8.70
2012,09,26,03,52,8.70
2012,09,26,03,53,8.70
2012,09,26,03,54,8.60
2012,09,26,03,55,8.60
2012,09,26,03,56,8.60
2012,09,26,03,57,8.60
2012,09,26,03,58,8.60
2012,09,26,03,59,8.60
2012,09,26,04,00,8.60
2012,09,26,04,01,8.70
2012,09,26,04,02,8.70
2012,09,26,04,03,8.80
2012,09,26,04,04,8.80
2012,09,26,04,05,8.80
2012,09,26,04,06,8.90
2012,09,26,04,07,8.90
2012,09,26,04,08,8.90
2012,09,26,04,09,8.90
2012,09,26,04,10,8.90
2012,09,26,04,11,8.80
2012,09,26,04,12,8.80
2012,09,26,04,13,8.80
2012,09,26,04,14,8.70
2012,09,26,04,15,8.70
2012,09,26,04,16,8.70
2012,09,26,04,17,8.70
2012,09,26,04,18,8.70
2012,09,26,04,19,8.60
2012,09,26,04,20,8.60
2012,09,26,04,21,8.60
2012,09,26,04,22,8.60
2012,09,26,04,23,8.60
2012,09,26,04,24,8.60
2012,09,26,04,25,8.60
2012,09,26,04,26,8.60
2012,09,26,04,27,8.60
2012,09,26,04,28,8.60
2012,09,26,04,29,8.70
2012,09,26,04,30,8.60
2012,09,26,04,31,8.60
2012,09,26,04,32,8.60
2012,09,26,04,33,8.60
2012,09,26,04,34,8.60
2012,09,26,04,35,8.60
2012,09,26,04,36,8.60
2012,09,26,04,37,8.60
2012,09,26,04,38,8.60
2012,09,26,04,39,8.50
2012,09,26,04,40,8.50
2012,09,26,04,41,8.40
2012,09,26,04,42,8.40
2012,09,26,04,43,8.40
2012,09,26,04,44,8.30
2012,09,26,04,45,8.30
2012,09,26,04,46,8.30
2012,09,26,04,47,8.30
2012,09,26,04,48,8.30
2012,09,26,04,49,8.30
2012,09,26,04,50,8.30
2012,09,26,04,51,8.30
2012,09,26,04,52,8.20
2012,09,26,04,53,8.20
2012,09,26,04,54,8.20
2012,09,26,04,55,8.20
2012,09,26,04,56,8.10
2012,09,26,04,57,8.10
2012,09,26,04,58,8.10
2012,09,26,04,59,8.10
2012,09,26,05,00,8.10
2012,09,26,05,01,8.10
2012,09,26,05,02,8.20
2012,09,26,05,03,8.20
2012,09,26,05,04,8.20
2012,09,26,05,05,8.30
2012,09,26,05,06,8.20
2012,09,26,05,07,8.20
2012,09,26,05,08,8.20
2012,09,26,05,09,8.30
2012,09,26,05,10,8.30
2012,09,26,05,11,8.40
2012,09,26,05,12,8.40
2012,09,26,05,13,8.40
2012,09,26,05,14,8.40
2012,09,26,05,15,8.50
2012,09,26,05,16,8.50
2012,09,26,05,17,8.50
2012,09,26,05,18,8.60
2012,09,26,05,19,8.60
2012,09,26,05,20,8.60
2012,09,26,05,21,8.60
2012,09,26,05,22,8.60
2012,09,26,05,23,8.60
2012,09,26,05,24,8.60
2012,09,26,05,25,8.60
2012,09,26,05,26,8.70
2012,09,26,05,27,8.70
2012,09,26,05,28,8.70
2012,09,26,05,29,8.70
2012,09,26,05,30,8.70
2012,09,26,05,31,8.80
2012,09,26,05,32,8.80
2012,09,26,05,33,8.90
2012,09,26,05,34,8.90
2012,09,26,05,35,8.90
2012,09,26,05,36,8.90
2012,09,26,05,37,8.90
2012,09,26,05,38,8.90
2012,09,26,05,39,8.90
2012,09,26,05,40,8.90
2012,09,26,05,41,8.90
2012,09,26,05,42,9.00
2012,09,26,05,43,9.00
2012,09,26,05,44,9.00
2012,09,26,05,45,9.10
2012,09,26,05,46,9.10
2012,09,26,05,47,9.10
2012,09,26,05,48,9.10
2012,09,26,05,49,9.10
2012,09,26,05,50,9.20
2012,09,26,05,51,9.10
2012,09,26,05,52,9.10
2012,09,26,05,53,9.00
2012,09,26,05,54,8.90
2012,09,26,05,55,8.80
2012,09,26,05,56,8.70
2012,09,26,05,57,8.70
2012,09,26,05,58,8.60
2012,09,26,05,59,8.50
2012,09,26,06,00,8.40
2012,09,26,06,01,8.40
2012,09,26,06,02,8.40
2012,09,26,06,03,8.50
2012,09,26,06,04,8.60
2012,09,26,06,05,8.60
2012,09,26,06,06,8.70
2012,09,26,06,07,8.70
2012,09,26,06,08,8.80
2012,09,26,06,09,8.80
2012,09,26,06,10,8.80
2012,09,26,06,11,8.80
2012,09,26,06,12,8.80
2012,09,26,06,13,8.80
2012,09,26,06,14,8.80
2012,09,26,06,15,8.90
2012,09,26,06,16,8.90
2012,09,26,06,17,8.90
2012,09,26,06,18,8.90
2012,09,26,06,19,8.90
2012,09,26,06,20,8.90
2012,09,26,06,21,8.90
2012,09,26,06,22,8.80
2012,09,26,06,23,8.80
2012,09,26,06,24,8.70
2012,09,26,06,25,8.60
2012,09,26,06,26,8.60
2012,09,26,06,27,8.50
2012,09,26,06,28,8.50
2012,09,26,06,29,8.40
2012,09,26,06,30,8.40
2012,09,26,06,31,8.30
2012,09,26,06,32,8.30
2012,09,26,06,33,8.30
2012,09,26,06,34,8.30
2012,09,26,06,35,8.30
2012,09,26,06,36,8.40
2012,09,26,06,37,8.40
2012,09,26,06,38,8.40
2012,09,26,06,39,8.40
2012,09,26,06,40,8.40
2012,09,26,06,41,8.40
2012,09,26,06,42,8.30
2012,09,26,06,43,8.30
2012,09,26,06,44,8.30
2012,09,26,06,45,8.30
2012,09,26,06,46,8.30
2012,09,26,06,47,8.20
2012,09,26,06,48,8.20
2012,09,26,06,49,8.20
2012,09,26,06,50,8.20
2012,09,26,06,51,8.20
2012,09,26,06,52,8.20
2012,09,26,06,53,8.10
2012,09,26,06,54,8.10
2012,09,26,06,55,8.10
2012,09,26,06,56,8.10
2012,09,26,06,57,8.00
2012,09,26,06,58,8.00
2012,09,26,06,59,8.00
2012,09,26,07,00,8.00
2012,09,26,07,01,8.00
2012,09,26,07,02,8.00
2012,09,26,07,03,8.00
2012,09,26,07,04,8.00
2012,09,26,07,05,8.00
2012,09,26,07,06,8.00
2012,09,26,07,07,8.00
2012,09,26,07,08,8.10
2012,09,26,07,09,8.10
2012,09,26,07,10,8.20
2012,09,26,07,11,8.20
2012,09,26,07,12,8.20
2012,09,26,07,13,8.20
2012,09,26,07,14,8.20
2012,09,26,07,15,8.20
2012,09,26,07,16,8.20
2012,09,26,07,17,8.20
2012,09,26,07,18,8.20
2012,09,26,07,19,8.20
2012,09,26,07,20,8.20
2012,09,26,07,21,8.20
2012,09,26,07,22,8.10
2012,09,26,07,23,8.10
2012,09,26,07,24,8.10
2012,09,26,07,25,8.10
2012,09,26,07,26,8.00
2012,09,26,07,27,8.00
2012,09,26,07,28,8.00
2012,09,26,07,29,8.00
2012,09,26,07,30,8.00
2012,09,26,07,31,8.00
2012,09,26,07,32,8.00
2012,09,26,07,33,8.00
2012,09,26,07,34,8.00
2012,09,26,07,35,7.90
2012,09,26,07,36,7.90
2012,09,26,07,37,7.90
2012,09,26,07,38,7.90
2012,09,26,07,39,7.90
2012,09,26,07,40,7.90
2012,09,26,07,41,7.90
2012,09,26,07,42,7.90
2012,09,26,07,43,7.90
2012,09,26,07,44,8.00
2012,09,26,07,45,8.00
2012,09,26,07,46,8.10
2012,09,26,07,47,8.10
2012,09,26,07,48,8.20
2012,09,26,07,49,8.20
2012,09,26,07,50,8.20
2012,09,26,07,51,8.30
2012,09,26,07,52,8.30
2012,09,26,07,53,8.30
2012,09,26,07,54,8.30
2012,09,26,07,55,8.30
2012,09,26,07,56,8.40
2012,09,26,07,57,8.40
2012,09,26,07,58,8.50
2012,09,26,07,59,8.50
2012,09,26,08,00,8.60
2012,09,26,08,01,8.60
2012,09,26,08,02,8.70
2012,09,26,08,03,8.70
2012,09,26,08,04,8.80
2012,09,26,08,05,8.90
2012,09,26,08,06,8.90
2012,09,26,08,07,9.00
2012,09,26,08,08,9.00
2012,09,26,08,09,9.10
2012,09,26,08,10,9.20
2012,09,26,08,11,9.30
2012,09,26,08,12,9.30
2012,09,26,08,13,9.50
2012,09,26,08,14,9.60
2012,09,26,08,15,9.70
2012,09,26,08,16,9.80
2012,09,26,08,17,10.00
2012,09,26,08,18,10.10
2012,09,26,08,19,10.30
2012,09,26,08,20,10.40
2012,09,26,08,21,10.60
2012,09,26,08,22,10.70
2012,09,26,08,23,10.90
2012,09,26,08,24,11.00
2012,09,26,08,25,11.20
2012,09,26,08,26,11.30
2012,09,26,08,27,11.40
2012,09,26,08,28,11.50
2012,09,26,08,29,11.60
2012,09,26,08,30,11.60
2012,09,26,08,31,11.70
2012,09,26,08,32,11.80
2012,09,26,08,33,11.80
2012,09,26,08,34,11.90
2012,09,26,08,35,11.90
2012,09,26,08,36,12.00
2012,09,26,08,37,12.00
2012,09,26,08,38,12.10
2012,09,26,08,39,12.10
2012,09,26,08,40,12.20
2012,09,26,08,41,12.20
2012,09,26,08,42,12.20
2012,09,26,08,43,12.20
2012,09,26,08,44,12.20
2012,09,26,08,45,12.20
2012,09,26,08,46,12.30
2012,09,26,08,47,12.30
2012,09,26,08,48,12.30
2012,09,26,08,49,12.30
2012,09,26,08,50,12.30
2012,09,26,08,51,12.30
2012,09,26,08,52,12.30
2012,09,26,08,53,12.30
2012,09,26,08,54,12.30
2012,09,26,08,55,12.30
2012,09,26,08,56,12.30
2012,09,26,08,57,12.30
2012,09,26,08,58,12.30
2012,09,26,08,59,12.30
2012,09,26,09,00,12.30
2012,09,26,09,01,12.30
2012,09,26,09,02,12.30
2012,09,26,09,03,12.30
2012,09,26,09,04,12.30
2012,09,26,09,05,12.30
2012,09,26,09,06,12.30
2012,09,26,09,07,12.30
2012,09,26,09,08,12.30
2012,09,26,09,09,12.30
2012,09,26,09,10,12.30
2012,09,26,09,11,12.30
2012,09,26,09,12,12.40
2012,09,26,09,13,12.40
2012,09,26,09,14,12.40
2012,09,26,09,15,12.40
2012,09,26,09,16,12.40
2012,09,26,09,17,12.40
2012,09,26,09,18,12.40
2012,09,26,09,19,12.40
2012,09,26,09,20,12.40
2012,09,26,09,21,12.40
2012,09,26,09,22,12.40
2012,09,26,09,23,12.50
2012,09,26,09,24,12.50
2012,09,26,09,25,12.50
2012,09,26,09,26,12.50
2012,09,26,09,27,12.60
2012,09,26,09,28,12.60
2012,09,26,09,29,12.60
2012,09,26,09,30,12.60
2012,09,26,09,31,12.60
2012,09,26,09,32,12.60
2012,09,26,09,33,12.70
2012,09,26,09,34,12.70
2012,09,26,09,35,12.70
2012,09,26,09,36,12.70
2012,09,26,09,37,12.70
2012,09,26,09,38,12.70
2012,09,26,09,39,12.70
2012,09,26,09,40,12.70
2012,09,26,09,41,12.70
2012,09,26,09,42,12.70
2012,09,26,09,43,12.70
2012,09,26,09,44,12.70
2012,09,26,09,45,12.80
2012,09,26,09,46,12.80
2012,09,26,09,47,12.80
2012,09,26,09,48,12.80
2012,09,26,09,49,12.80
2012,09,26,09,50,12.80
2012,09,26,09,51,12.80
2012,09,26,09,52,12.80
2012,09,26,09,53,12.90
2012,09,26,09,54,12.90
2012,09,26,09,55,13.00
2012,09,26,09,56,13.10
2012,09,26,09,57,13.20
2012,09,26,09,58,13.20
2012,09,26,09,59,13.30
2012,09,26,10,00,13.40
2012,09,26,10,01,13.50
2012,09,26,10,02,13.60
2012,09,26,10,03,13.70
2012,09,26,10,04,13.70
2012,09,26,10,05,13.80
2012,09,26,10,06,13.80
2012,09,26,10,07,13.90
2012,09,26,10,08,14.00
2012,09,26,10,09,14.00
2012,09,26,10,10,14.10
2012,09,26,10,11,14.10
2012,09,26,10,12,14.10
2012,09,26,10,13,14.10
2012,09,26,10,14,14.10
2012,09,26,10,15,14.10
2012,09,26,10,16,14.20
2012,09,26,10,17,14.20
2012,09,26,10,18,14.20
2012,09,26,10,19,14.30
2012,09,26,10,20,14.30
2012,09,26,10,21,14.30
2012,09,26,10,22,14.30
2012,09,26,10,23,14.30
2012,09,26,10,24,14.40
2012,09,26,10,25,14.50
2012,09,26,10,26,14.50
2012,09,26,10,27,14.60
2012,09,26,10,28,14.60
2012,09,26,10,29,14.60
2012,09,26,10,30,14.60
2012,09,26,10,31,14.70
2012,09,26,10,32,14.70
2012,09,26,10,33,14.70
2012,09,26,10,34,14.80
2012,09,26,10,35,14.80
2012,09,26,10,36,14.70
2012,09,26,10,37,14.70
2012,09,26,10,38,14.70
2012,09,26,10,39,14.60
2012,09,26,10,40,14.60
2012,09,26,10,41,14.60
2012,09,26,10,42,14.50
2012,09,26,10,43,14.50
2012,09,26,10,44,14.50
2012,09,26,10,45,14.40
2012,09,26,10,46,14.40
2012,09,26,10,47,14.40
2012,09,26,10,48,14.50
2012,09,26,10,49,14.50
2012,09,26,10,50,14.60
2012,09,26,10,51,14.70
2012,09,26,10,52,14.80
2012,09,26,10,53,14.90
2012,09,26,10,54,15.00
2012,09,26,10,55,15.10
2012,09,26,10,56,15.20
2012,09,26,10,57,15.30
2012,09,26,10,58,15.40
2012,09,26,10,59,15.50
2012,09,26,11,00,15.70
2012,09,26,11,01,15.70
2012,09,26,11,02,15.80
2012,09,26,11,03,15.80
2012,09,26,11,04,15.80
2012,09,26,11,05,15.80
2012,09,26,11,06,15.90
2012,09,26,11,07,15.90
2012,09,26,11,08,16.00
2012,09,26,11,09,16.00
2012,09,26,11,10,16.10
2012,09,26,11,11,16.10
2012,09,26,11,12,16.20
2012,09,26,11,13,16.20
2012,09,26,11,14,16.20
2012,09,26,11,15,16.20
2012,09,26,11,16,16.20
2012,09,26,11,17,16.10
2012,09,26,11,18,16.10
2012,09,26,11,19,16.00
2012,09,26,11,20,15.90
2012,09,26,11,21,15.90
2012,09,26,11,22,15.80
2012,09,26,11,23,15.80
2012,09,26,11,24,15.70
2012,09,26,11,25,15.70
2012,09,26,11,26,15.70
2012,09,26,11,27,15.70
2012,09,26,11,28,15.70
2012,09,26,11,29,15.70
2012,09,26,11,30,15.80
2012,09,26,11,31,15.80
2012,09,26,11,32,15.90
2012,09,26,11,33,16.00
2012,09,26,11,34,16.10
2012,09,26,11,35,16.10
2012,09,26,11,36,16.20
2012,09,26,11,37,16.20
2012,09,26,11,38,16.30
2012,09,26,11,39,16.30
2012,09,26,11,40,16.40
2012,09,26,11,41,16.50
2012,09,26,11,42,16.60
2012,09,26,11,43,16.70
2012,09,26,11,44,16.70
2012,09,26,11,45,16.70
2012,09,26,11,46,16.70
2012,09,26,11,47,16.60
2012,09,26,11,48,16.70
2012,09,26,11,49,16.70
2012,09,26,11,50,16.70
2012,09,26,11,51,16.70
2012,09,26,11,52,16.60
2012,09,26,11,53,16.60
2012,09,26,11,54,16.60
2012,09,26,11,55,16.50
2012,09,26,11,56,16.50
2012,09,26,11,57,16.50
2012,09,26,11,58,16.50
2012,09,26,11,59,16.50
2012,09,26,12,00,16.50
2012,09,26,12,01,16.40
2012,09,26,12,02,16.40
2012,09,26,12,03,16.40
2012,09,26,12,04,16.40
2012,09,26,12,05,16.30
2012,09,26,12,06,16.10
2012,09,26,12,07,16.00
2012,09,26,12,08,15.90
2012,09,26,12,09,15.80
2012,09,26,12,10,15.80
2012,09,26,12,11,15.80
2012,09,26,12,12,15.70
2012,09,26,12,13,15.70
2012,09,26,12,14,15.70
2012,09,26,12,15,15.70
2012,09,26,12,16,15.70
2012,09,26,12,17,15.70
2012,09,26,12,18,15.80
2012,09,26,12,19,15.80
2012,09,26,12,20,15.80
2012,09,26,12,21,15.70
2012,09,26,12,22,15.70
2012,09,26,12,23,15.70
2012,09,26,12,24,15.70
2012,09,26,12,25,15.70
2012,09,26,12,26,15.70
2012,09,26,12,27,15.70
2012,09,26,12,28,15.70
2012,09,26,12,29,15.70
2012,09,26,12,30,15.70
2012,09,26,12,31,15.70
2012,09,26,12,32,15.70
2012,09,26,12,33,15.70
2012,09,26,12,34,15.80
2012,09,26,12,35,15.80
2012,09,26,12,36,15.90
2012,09,26,12,37,16.00
2012,09,26,12,38,16.10
2012,09,26,12,39,16.10
2012,09,26,12,40,16.20
2012,09,26,12,41,16.20
2012,09,26,12,42,16.30
2012,09,26,12,43,16.30
2012,09,26,12,44,16.30
2012,09,26,12,45,16.30
2012,09,26,12,46,16.30
2012,09,26,12,47,16.30
2012,09,26,12,48,16.30
2012,09,26,12,49,16.30
2012,09,26,12,50,16.40
2012,09,26,12,51,16.40
2012,09,26,12,52,16.40
2012,09,26,12,53,16.40
2012,09,26,12,54,16.40
2012,09,26,12,55,16.40
2012,09,26,12,56,16.50
2012,09,26,12,57,16.50
2012,09,26,12,58,16.50
2012,09,26,12,59,16.50
2012,09,26,13,00,16.50
2012,09,26,13,01,16.50
2012,09,26,13,02,16.60
2012,09,26,13,03,16.60
2012,09,26,13,04,16.70
2012,09,26,13,05,16.80
2012,09,26,13,06,16.80
2012,09,26,13,07,16.80
2012,09,26,13,08,16.80
2012,09,26,13,09,16.80
2012,09,26,13,10,16.80
2012,09,26,13,11,16.90
2012,09,26,13,12,16.90
2012,09,26,13,13,17.00
2012,09,26,13,14,17.10
2012,09,26,13,15,17.20
2012,09,26,13,16,17.20
2012,09,26,13,17,17.30
2012,09,26,13,18,17.50
2012,09,26,13,19,17.60
2012,09,26,13,20,17.70
2012,09,26,13,21,17.80
2012,09,26,13,22,17.90
2012,09,26,13,23,18.00
2012,09,26,13,24,18.10
2012,09,26,13,25,18.10
2012,09,26,13,26,18.20
2012,09,26,13,27,18.20
2012,09,26,13,28,18.20
2012,09,26,13,29,18.10
2012,09,26,13,30,18.10
2012,09,26,13,31,18.10
2012,09,26,13,32,18.00
2012,09,26,13,33,18.00
2012,09,26,13,34,18.10
2012,09,26,13,35,18.10
2012,09,26,13,36,18.20
2012,09,26,13,37,18.20
2012,09,26,13,38,18.30
2012,09,26,13,39,18.30
2012,09,26,13,40,18.40
2012,09,26,13,41,18.50
2012,09,26,13,42,18.60
2012,09,26,13,43,18.60
2012,09,26,13,44,18.60
2012,09,26,13,45,18.60
2012,09,26,13,46,18.70
2012,09,26,13,47,18.70
2012,09,26,13,48,18.70
2012,09,26,13,49,18.80
2012,09,26,13,50,18.90
2012,09,26,13,51,18.90
2012,09,26,13,52,18.90
2012,09,26,13,53,18.80
2012,09,26,13,54,18.60
2012,09,26,13,55,18.40
2012,09,26,13,56,18.20
2012,09,26,13,57,18.00
2012,09,26,13,58,17.90
2012,09,26,13,59,17.80
2012,09,26,14,00,17.70
2012,09,26,14,01,17.80
2012,09,26,14,02,17.80
2012,09,26,14,03,17.90
2012,09,26,14,04,17.90
2012,09,26,14,05,17.90
2012,09,26,14,06,17.90
2012,09,26,14,07,17.80
2012,09,26,14,08,17.80
2012,09,26,14,09,17.80
2012,09,26,14,10,17.80
2012,09,26,14,11,17.90
2012,09,26,14,12,17.90
2012,09,26,14,13,17.90
2012,09,26,14,14,17.90
2012,09,26,14,15,18.00
2012,09,26,14,16,18.00
2012,09,26,14,17,18.00
2012,09,26,14,18,18.00
2012,09,26,14,19,18.00
2012,09,26,14,20,18.00
2012,09,26,14,21,17.90
2012,09,26,14,22,17.90
2012,09,26,14,23,17.80
2012,09,26,14,24,17.80
2012,09,26,14,25,17.80
2012,09,26,14,26,17.80
2012,09,26,14,27,17.80
2012,09,26,14,28,17.80
2012,09,26,14,29,17.90
2012,09,26,14,30,17.90
2012,09,26,14,31,18.00
2012,09,26,14,32,18.10
2012,09,26,14,33,18.10
2012,09,26,14,34,18.10
2012,09,26,14,35,18.10
2012,09,26,14,36,18.00
2012,09,26,14,37,17.90
2012,09,26,14,38,17.90
2012,09,26,14,39,17.80
2012,09,26,14,40,17.70
2012,09,26,14,41,17.70
2012,09,26,14,42,17.70
2012,09,26,14,43,17.70
2012,09,26,14,44,17.70
2012,09,26,14,45,17.70
2012,09,26,14,46,17.70
2012,09,26,14,47,17.70
2012,09,26,14,48,17.70
2012,09,26,14,49,17.60
2012,09,26,14,50,17.50
2012,09,26,14,51,17.40
2012,09,26,14,52,17.30
2012,09,26,14,53,17.20
2012,09,26,14,54,17.10
2012,09,26,14,55,17.00
2012,09,26,14,56,17.00
2012,09,26,14,57,16.90
2012,09,26,14,58,16.80
2012,09,26,14,59,16.80
2012,09,26,15,00,16.80
2012,09,26,15,01,16.70
2012,09,26,15,02,16.80
2012,09,26,15,03,16.80
2012,09,26,15,04,16.90
2012,09,26,15,05,16.90
2012,09,26,15,06,17.00
2012,09,26,15,07,17.10
2012,09,26,15,08,17.10
2012,09,26,15,09,17.10
2012,09,26,15,10,17.20
2012,09,26,15,11,17.20
2012,09,26,15,12,17.20
2012,09,26,15,13,17.30
2012,09,26,15,14,17.30
2012,09,26,15,15,17.30
2012,09,26,15,16,17.20
2012,09,26,15,17,17.20
2012,09,26,15,18,17.10
2012,09,26,15,19,17.10
2012,09,26,15,20,17.00
2012,09,26,15,21,16.90
2012,09,26,15,22,16.90
2012,09,26,15,23,16.80
2012,09,26,15,24,16.80
2012,09,26,15,25,16.90
2012,09,26,15,26,16.90
2012,09,26,15,27,16.90
2012,09,26,15,28,17.00
2012,09,26,15,29,17.00
2012,09,26,15,30,17.10
2012,09,26,15,31,17.10
2012,09,26,15,32,17.20
2012,09,26,15,33,17.20
2012,09,26,15,34,17.30
2012,09,26,15,35,17.30
2012,09,26,15,36,17.40
2012,09,26,15,37,17.50
2012,09,26,15,38,17.60
2012,09,26,15,39,17.80
2012,09,26,15,40,18.00
2012,09,26,15,41,18.10
2012,09,26,15,42,18.30
2012,09,26,15,43,18.50
2012,09,26,15,44,18.60
2012,09,26,15,45,18.80
2012,09,26,15,46,18.90
2012,09,26,15,47,18.90
2012,09,26,15,48,18.90
2012,09,26,15,49,18.90
2012,09,26,15,50,18.90
2012,09,26,15,51,18.90
2012,09,26,15,52,18.90
2012,09,26,15,53,18.90
2012,09,26,15,54,19.00
2012,09,26,15,55,19.00
2012,09,26,15,56,19.00
2012,09,26,15,57,19.10
2012,09,26,15,58,19.10
2012,09,26,15,59,19.20
2012,09,26,16,00,19.20
2012,09,26,16,01,19.30
2012,09,26,16,02,19.30
2012,09,26,16,03,19.20
2012,09,26,16,04,19.20
2012,09,26,16,05,19.10
2012,09,26,16,06,19.00
2012,09,26,16,07,18.90
2012,09,26,16,08,18.90
2012,09,26,16,09,18.80
2012,09,26,16,10,18.70
2012,09,26,16,11,18.70
2012,09,26,16,12,18.70
2012,09,26,16,13,18.80
2012,09,26,16,14,18.80
2012,09,26,16,15,18.80
2012,09,26,16,16,18.80
2012,09,26,16,17,18.80
2012,09,26,16,18,18.80
2012,09,26,16,19,18.90
2012,09,26,16,20,18.80
2012,09,26,16,21,18.80
2012,09,26,16,22,18.80
2012,09,26,16,23,18.80
2012,09,26,16,24,18.80
2012,09,26,16,25,18.80
2012,09,26,16,26,18.70
2012,09,26,16,27,18.70
2012,09,26,16,28,18.70
2012,09,26,16,29,18.70
2012,09,26,16,30,18.70
2012,09,26,16,31,18.70
2012,09,26,16,32,18.50
2012,09,26,16,33,18.40
2012,09,26,16,34,18.30
2012,09,26,16,35,18.20
2012,09,26,16,36,18.20
2012,09,26,16,37,18.20
2012,09,26,16,38,18.20
2012,09,26,16,39,18.20
2012,09,26,16,40,18.30
2012,09,26,16,41,18.30
2012,09,26,16,42,18.30
2012,09,26,16,43,18.30
2012,09,26,16,44,18.30
2012,09,26,16,45,18.30
2012,09,26,16,46,18.30
2012,09,26,16,47,18.30
2012,09,26,16,48,18.30
2012,09,26,16,49,18.30
2012,09,26,16,50,18.30
2012,09,26,16,51,18.30
2012,09,26,16,52,18.30
2012,09,26,16,53,18.30
2012,09,26,16,54,18.30
2012,09,26,16,55,18.30
2012,09,26,16,56,18.40
2012,09,26,16,57,18.40
2012,09,26,16,58,18.50
2012,09,26,16,59,18.60
2012,09,26,17,00,18.60
2012,09,26,17,01,18.70
2012,09,26,17,02,18.70
2012,09,26,17,03,18.70
2012,09,26,17,04,18.80
2012,09,26,17,05,18.90
2012,09,26,17,06,19.00
2012,09,26,17,07,19.00
2012,09,26,17,08,19.00
2012,09,26,17,09,19.00
2012,09,26,17,10,19.00
2012,09,26,17,11,19.00
2012,09,26,17,12,19.00
2012,09,26,17,13,19.00
2012,09,26,17,14,19.00
2012,09,26,17,15,19.10
2012,09,26,17,16,19.10
2012,09,26,17,17,19.20
2012,09,26,17,18,19.20
2012,09,26,17,19,19.20
2012,09,26,17,20,19.20
2012,09,26,17,21,19.30
2012,09,26,17,22,19.30
2012,09,26,17,23,19.20
2012,09,26,17,24,19.20
2012,09,26,17,25,19.00
2012,09,26,17,26,18.90
2012,09,26,17,27,18.80
2012,09,26,17,28,18.70
2012,09,26,17,29,18.60
2012,09,26,17,30,18.50
2012,09,26,17,31,18.40
2012,09,26,17,32,18.30
2012,09,26,17,33,18.20
2012,09,26,17,34,18.10
2012,09,26,17,35,18.10
2012,09,26,17,36,18.10
2012,09,26,17,37,18.00
2012,09,26,17,38,17.90
2012,09,26,17,39,17.90
2012,09,26,17,40,17.80